Flag for U.S.A. Weather past 2 weeks in Portland, Maine, U.S.A.

Now
59 °F

Partly sunny.


Feels Like: 59 °F
Forecast: 57 / 69 °F
Wind: No wind

Location: Portland - Portland International Jetport

Current Time: Jul 4, 2015 at 8:06:18 AM

Latest Report: Jul 4, 2015 at 6:51 AM


Visibility: 10 mi

Pressure: 30.00 "Hg

Humidity: 90%

Dew point: 56 °F

Location of PortlandLocation

Historic Weather in Portland — Graph

°F

Portland temperature yesterday

Maximum temperature yesterday: 79 °F (at 2:51 PM)
Minimum temperature yesterday: 54 °F (at 5:51 AM)
Average temperature yesterday: 67 °F

Past Weeks' High & Low Weather Summary

 TemperatureHumidityPressure
High81 °F (Jun 24, 2:51 PM)100% (Jun 21, 4:03 AM)30.19 "Hg (Jun 21, 4:03 AM)
Low49 °F (Jun 27, 3:51 AM)28% (Jun 24, 2:51 PM)29.65 "Hg (Jun 23, 7:51 PM)
Average64 °F77%29.92 "Hg
* Reported Jun 19 6:51 AM — Jul 4 6:51 AM, Portland, Weather by CustomWeather, © 2015

Note: Actual official high and low records may vary slightly from our data, if they occured in-between our weather recording intervals... More about our weather records

Advertising

Portland weather history for previous 24 hours

 ConditionsComfort  
Time TempWeatherWind HumidityBarometerVisibility
6:51 AM
Sat, Jul 4
59 °FPartly sunny.No wind90%30.00 "Hg10 mi
5:51 AM55 °FPassing clouds.6 mph93%29.99 "Hg10 mi
4:51 AM55 °FPassing clouds.No wind93%29.99 "Hg10 mi
3:51 AM56 °FClear.5 mph90%29.99 "Hg10 mi
2:51 AM56 °FClear.3 mph93%29.98 "Hg10 mi
1:51 AM58 °FClear.No wind87%29.98 "Hg10 mi
12:51 AM59 °FClear.No wind84%29.98 "Hg10 mi
11:51 PM
Fri, Jul 3
59 °FPassing clouds.8 mph87%29.98 "Hg10 mi
10:51 PM62 °FPassing clouds.No wind80%29.97 "Hg10 mi
9:51 PM63 °FPassing clouds.No wind78%29.96 "Hg10 mi
8:51 PM65 °FScattered clouds.No wind73%29.95 "Hg10 mi
7:51 PM68 °FScattered clouds.5 mph65%29.94 "Hg10 mi
6:51 PM76 °FPassing clouds.8 mph39%29.92 "Hg10 mi
5:51 PM78 °FPassing clouds.9 mph35%29.91 "Hg10 mi
4:51 PM77 °FPassing clouds.10 mph47%29.91 "Hg10 mi
3:51 PM76 °FPassing clouds.7 mph45%29.91 "Hg10 mi
2:51 PM79 °FPassing clouds.7 mph35%29.92 "Hg10 mi
1:51 PM78 °FPassing clouds.8 mph36%29.92 "Hg10 mi
12:51 PM77 °FScattered clouds.6 mph33%29.92 "Hg10 mi
11:51 AM76 °FScattered clouds.8 mph33%29.92 "Hg10 mi
10:51 AM74 °FScattered clouds.9 mph38%29.93 "Hg10 mi
9:51 AM72 °FSunny.10 mph48%29.94 "Hg10 mi
8:51 AM68 °FPassing clouds.8 mph61%29.94 "Hg10 mi
Weather by CustomWeather, © 2015

See weather overviewHow to use our weather pages